Albany, NY

7:35 AM EST on November 13, 2019 (GMT -0500)
Albany International

Weather History for KALB - September, 2019

Change the Weather History Date:

Friday, September 27, 2019

  Actual Average Record
Temperature  
Mean Temperature 59 °F 57 °F  
Max Temperature 72 °F 68 °F 89 °F (2017)
Min Temperature 46 °F 47 °F 24 °F (1947)
Degree Days  
Heating Degree Days 6 8  
Month to date heating degree days 64 115  
Since 1 July heating degree days 66 138  
Cooling Degree Days 0 1  
Month to date cooling degree days 41 51  
Year to date cooling degree days 764 594  
Growing Degree Days 9 (Base 50)    
Moisture  
Dew Point 49 °F    
Average Humidity 67    
Maximum Humidity 93    
Minimum Humidity 41    
Precipitation  
Precipitation 0.00 in 0.12 in 1.79 in (1942)
Month to date precipitation 2.18 2.94  
Year to date precipitation 31.16 29.09  
Sea Level Pressure  
Sea Level Pressure 30.07 in    
Wind  
Wind Speed 4 mph (South)    
Max Wind Speed 14 mph    
Max Gust Speed 17 mph    
Visibility 10 miles    
Events Fog    
T = Trace of Precipitation, MM = Missing Value Source: NWS Daily Summary

Daily Weather History Graph

Daily Weather History Graph

Search for Another Location

Airport or City:

Astronomy

Sep. 27, 2019 Rise Set
Actual Time 6:47 AM EDT 6:44 PM EDT
Civil Twilight 6:19 AM EDT 7:12 PM EDT
Nautical Twilight 5:46 AM EDT 7:44 PM EDT
Astronomical Twilight 5:13 AM EDT 8:18 PM EDT
Moon 5:01 AM EDT (9/27) 6:35 PM EDT (9/27)
Length of Visible Light 12h 52m
Length of Day
11h 56m
Waning Crescent, 2% of the Moon is Illuminated
Sep 27
Waning Crescent
Sep 28
New
Oct 5
First Quarter
Oct 13
Full
Oct 21
Last Quarter

Hourly Weather History & Observations

Time (EDT) Temp. Dew Point Humidity Pressure Visibility Wind Dir Wind Speed Gust Speed Precip Events Conditions
12:51 AM 55.0 °F 50.0 °F 83% 29.97 in 10.0 mi WSW 6.9 mph - N/A   Clear
1:51 AM 51.1 °F 48.9 °F 92% 29.99 in 10.0 mi Calm Calm - N/A   Clear
2:51 AM 53.1 °F 48.0 °F 83% 30.01 in 10.0 mi WNW 5.8 mph - N/A   Clear
3:51 AM 51.1 °F 46.9 °F 86% 30.03 in 10.0 mi Calm Calm - N/A   Clear
4:51 AM 48.9 °F 46.0 °F 90% 30.04 in 10.0 mi Calm Calm - N/A Fog Shallow Fog
5:01 AM 48.0 °F 45.0 °F 89% 30.04 in 10.0 mi Calm Calm - N/A Fog Shallow Fog
5:51 AM 48.0 °F 45.0 °F 89% 30.06 in 10.0 mi Calm Calm - N/A Fog Patches of Fog
8:51 AM 55.0 °F 51.1 °F 86% 30.12 in 10.0 mi Calm Calm - N/A   Partly Cloudy
9:51 AM 61.0 °F 52.0 °F 72% 30.13 in 10.0 mi WSW 5.8 mph - N/A   Partly Cloudy
10:51 AM 64.9 °F 50.0 °F 58% 30.13 in 10.0 mi Variable 4.6 mph - N/A   Partly Cloudy
11:51 AM 66.9 °F 50.0 °F 54% 30.14 in 10.0 mi WSW 3.5 mph - N/A   Scattered Clouds
12:51 PM 69.1 °F 46.9 °F 45% 30.12 in 10.0 mi West 8.1 mph - N/A   Scattered Clouds
1:51 PM 71.1 °F 46.9 °F 42% 30.10 in 10.0 mi Variable 5.8 mph - N/A   Scattered Clouds
2:51 PM 72.0 °F 48.9 °F 44% 30.08 in 10.0 mi SSE 6.9 mph - N/A   Partly Cloudy
3:51 PM 71.1 °F 48.9 °F 45% 30.07 in 10.0 mi South 4.6 mph - N/A   Partly Cloudy
4:51 PM 71.1 °F 51.1 °F 49% 30.07 in 10.0 mi SSE 9.2 mph - N/A   Partly Cloudy
5:51 PM 70.0 °F 50.0 °F 49% 30.08 in 10.0 mi South 8.1 mph - N/A   Partly Cloudy
6:51 PM 66.0 °F 51.1 °F 59% 30.07 in 10.0 mi SE 5.8 mph - N/A   Scattered Clouds
7:51 PM 64.0 °F 51.1 °F 63% 30.07 in 10.0 mi SE 4.6 mph - N/A   Scattered Clouds
8:51 PM 63.0 °F 50.0 °F 63% 30.08 in 10.0 mi South 5.8 mph - N/A   Scattered Clouds
9:51 PM 61.0 °F 50.0 °F 67% 30.07 in 10.0 mi SSE 4.6 mph - N/A   Scattered Clouds
10:51 PM 57.9 °F 48.9 °F 72% 30.07 in 10.0 mi SSW 4.6 mph - N/A   Scattered Clouds
11:51 PM 57.9 °F 48.0 °F 70% 30.08 in 10.0 mi South 4.6 mph - N/A   Scattered Clouds